Location: Clyde
(45.1830°S, 169.3170°E)
Time: 11:07:49
(UTC+12:00)

Cosmos 1242 Rocket - Pass Details

Date: 14 May 2021
Orbit: 445 x 484 km, 81.2° (Epoch: 15 June)

Event Time Altitude Azimuth Distance (km) Brightness Sun altitude
Rises 19:29:49 0° 191° (S) 2,596 6.3 -22.0°
Reaches altitude 10° 19:31:57 10° 190° (S) 1,707 5.4 -22.3°
Enters shadow 19:33:36 25° 189° (S) 1,049 4.2 -22.6°
